Погода в Куше

Россия / Архангельская область     63°43′18″N   37°03′17″E
темп.,
°C
ветер,
м/с
пор.,
м/с
влажн.,
%
обл.,
%
осадки,
мм/ч
давл.,
гПа
погр.,
м
12 мая, ср
ср1200:00+15юз5156547 0.0 1021549
03:00+14юз41468100 0.0 1022439
06:00+15юз411715 0.0 1022361
09:00+19юз48557 0.0 1022559
12:00+23юз46405 0.0 10221419
15:00+24юз46350 0.0 10221604
18:00+22ююз45423 0.0 10221102
21:00+16ююз38620 0.0 1021136
13 мая, чт
чт1300:00+14ююз37670 0.0 1022122
03:00+13ююз38690 0.0 1021137
06:00+15ююз38610 0.0 1020200
09:00+21юз36460 0.0 1020545
12:00+24юз45389 0.0 10191859
15:00+25юз45336 0.0 10182416
18:00+23юз343998 0.0 10161685
21:00+18ю2362100 0.0 101650
14 мая, пт
пт1400:00+16ю227248 0.6 101529
03:00+14ююв228323 1.2 101319
06:00+15ююв24805 0.4 1011109
09:00+17ююз367792 1.0 1011450
12:00+18ююз5864100 0.0 1011875
15:00+19юз565669 0.3 10111467
18:00+18юз474650 0.0 10121402
21:00+14ююз376371 0.0 1012145
15 мая, сб
сб1500:00+11ююз347044 0.0 101270
03:00+10ю247241 0.0 101261
06:00+13ю256550 0.0 1011144
09:00+18ююв34447 0.0 10101034
12:00+20ююв353818 0.0 10091932
15:00+20ююв2443100 0.0 10081636
18:00+14с236551 0.0 1007107
21:00+10сз229267 2.1 100670
16 мая, вс
вс1600:00+7ссз249728 0.4 1006103
03:00+6сз379740 0.6 1006195
06:00+5сз4895100 0.0 1007309
09:00+6зсз4791100 0.0 1007343
12:00+7зсз468595 0.0 1008388
15:00+7сз4685100 0.0 1010413
18:00+5ссз3591100 0.0 1011330
21:00+3ссз3792100 0.1 1013360